Time,TemperatureF,DewpointF,PressureIn,WindDirection,WindDirectionDegrees,WindSpeedMPH,WindSpeedGustMPH,Humidity,HourlyPrecipIn,Conditions,Clouds,dailyrainin,SoftwareType,DateUTC
2013-01-07 00:00:00,24.0,-7.0,-100.00,North,-999,-999.0,-999.0,23,-99.99,,,-99.99,,2013-01-07 07:00:00,
2013-01-07 00:33:00,24.0,-7.0,-100.00,North,-999,-999.0,-999.0,23,-99.99,,,-99.99,,2013-01-07 07:33:00,
2013-01-07 00:42:00,24.0,-7.0,-100.00,North,-999,-999.0,-999.0,23,-99.99,,,-99.99,,2013-01-07 07:42:00,
2013-01-07 00:52:00,24.0,-7.0,-100.00,North,-999,-999.0,-999.0,23,-99.99,,,-99.99,,2013-01-07 07:52:00,
2013-01-07 01:00:00,25.0,-7.0,-100.00,North,-999,-999.0,-999.0,23,-99.99,,,-99.99,,2013-01-07 08:00:00,
2013-01-07 01:33:00,25.0,-7.0,-100.00,North,-999,-999.0,-999.0,23,-99.99,,,-99.99,,2013-01-07 08:33:00,
2013-01-07 01:43:00,25.0,-7.0,-100.00,North,-999,-999.0,-999.0,23,-99.99,,,-99.99,,2013-01-07 08:43:00,
2013-01-07 01:53:00,25.0,-7.0,-100.00,North,-999,-999.0,-999.0,23,-99.99,,,-99.99,,2013-01-07 08:53:00,
2013-01-07 02:00:00,24.0,-7.0,-100.00,North,-999,-999.0,-999.0,25,-99.99,,,-99.99,,2013-01-07 09:00:00,
2013-01-07 02:32:00,24.0,-7.0,-100.00,North,-999,-999.0,-999.0,25,-99.99,,,-99.99,,2013-01-07 09:32:00,
2013-01-07 02:42:00,24.0,-7.0,-100.00,North,-999,-999.0,-999.0,25,-99.99,,,-99.99,,2013-01-07 09:42:00,
2013-01-07 02:52:00,24.0,-7.0,-100.00,North,-999,-999.0,-999.0,25,-99.99,,,-99.99,,2013-01-07 09:52:00,
2013-01-07 03:00:00,24.0,-7.0,-100.00,North,-999,-999.0,-999.0,24,-99.99,,,-99.99,,2013-01-07 10:00:00,
2013-01-07 03:33:00,24.0,-7.0,-100.00,North,-999,-999.0,-999.0,24,-99.99,,,-99.99,,2013-01-07 10:33:00,
2013-01-07 03:42:00,24.0,-7.0,-100.00,North,-999,-999.0,-999.0,24,-99.99,,,-99.99,,2013-01-07 10:42:00,
2013-01-07 03:52:00,24.0,-7.0,-100.00,North,-999,-999.0,-999.0,24,-99.99,,,-99.99,,2013-01-07 10:52:00,
2013-01-07 05:00:00,25.0,-17.0,-100.00,North,-999,-999.0,-999.0,14,-99.99,,,-99.99,,2013-01-07 12:00:00,
2013-01-07 05:33:00,25.0,-17.0,-100.00,North,-999,-999.0,-999.0,14,-99.99,,,-99.99,,2013-01-07 12:33:00,
2013-01-07 05:43:00,25.0,-17.0,-100.00,North,-999,-999.0,-999.0,14,-99.99,,,-99.99,,2013-01-07 12:43:00,
2013-01-07 05:53:00,25.0,-17.0,-100.00,North,-999,-999.0,-999.0,14,-99.99,,,-99.99,,2013-01-07 12:53:00,
2013-01-07 06:00:00,26.0,-16.0,-100.00,North,-999,-999.0,-999.0,14,-99.99,,,-99.99,,2013-01-07 13:00:00,
2013-01-07 06:33:00,26.0,-16.0,-100.00,North,-999,-999.0,-999.0,14,-99.99,,,-99.99,,2013-01-07 13:33:00,
2013-01-07 06:43:00,26.0,-16.0,-100.00,North,-999,-999.0,-999.0,14,-99.99,,,-99.99,,2013-01-07 13:43:00,
2013-01-07 06:53:00,26.0,-16.0,-100.00,North,-999,-999.0,-999.0,14,-99.99,,,-99.99,,2013-01-07 13:53:00,
2013-01-07 07:00:00,26.0,-11.0,-100.00,North,-999,-999.0,-999.0,17,-99.99,,,-99.99,,2013-01-07 14:00:00,
2013-01-07 07:33:00,26.0,-11.0,-100.00,North,-999,-999.0,-999.0,17,-99.99,,,-99.99,,2013-01-07 14:33:00,
2013-01-07 07:43:00,26.0,-11.0,-100.00,North,-999,-999.0,-999.0,17,-99.99,,,-99.99,,2013-01-07 14:43:00,
2013-01-07 07:53:00,26.0,-11.0,-100.00,North,-999,-999.0,-999.0,17,-99.99,,,-99.99,,2013-01-07 14:53:00,
2013-01-07 08:00:00,27.0,-13.0,-100.00,North,-999,-999.0,-999.0,15,-99.99,,,-99.99,,2013-01-07 15:00:00,
2013-01-07 08:33:00,27.0,-13.0,-100.00,North,-999,-999.0,-999.0,15,-99.99,,,-99.99,,2013-01-07 15:33:00,
2013-01-07 08:43:00,27.0,-13.0,-100.00,North,-999,-999.0,-999.0,15,-99.99,,,-99.99,,2013-01-07 15:43:00,
2013-01-07 08:53:00,27.0,-13.0,-100.00,North,-999,-999.0,-999.0,15,-99.99,,,-99.99,,2013-01-07 15:53:00,
2013-01-07 09:33:00,33.0,-12.0,-100.00,North,-999,-999.0,-999.0,13,-99.99,,,-99.99,,2013-01-07 16:33:00,
2013-01-07 10:33:00,37.0,-10.0,-100.00,North,-999,-999.0,-999.0,12,-99.99,,,-99.99,,2013-01-07 17:33:00,
2013-01-07 11:33:00,38.0,-8.0,-100.00,North,-999,-999.0,-999.0,12,-99.99,,,-99.99,,2013-01-07 18:33:00,
2013-01-07 12:33:00,41.0,-6.0,-100.00,North,-999,-999.0,-999.0,12,-99.99,,,-99.99,,2013-01-07 19:33:00,
2013-01-07 13:00:00,36.0,1.0,-100.00,North,-999,-999.0,-999.0,21,-99.99,,,-99.99,,2013-01-07 20:00:00,
2013-01-07 13:33:00,36.0,1.0,-100.00,North,-999,-999.0,-999.0,21,-99.99,,,-99.99,,2013-01-07 20:33:00,
2013-01-07 13:43:00,36.0,1.0,-100.00,North,-999,-999.0,-999.0,21,-99.99,,,-99.99,,2013-01-07 20:43:00,
2013-01-07 13:53:00,36.0,1.0,-100.00,North,-999,-999.0,-999.0,21,-99.99,,,-99.99,,2013-01-07 20:53:00,
2013-01-07 14:00:00,33.0,5.0,-100.00,North,-999,-999.0,-999.0,30,-99.99,,,-99.99,,2013-01-07 21:00:00,
2013-01-07 14:33:00,33.0,5.0,-100.00,North,-999,-999.0,-999.0,30,-99.99,,,-99.99,,2013-01-07 21:33:00,
2013-01-07 14:43:00,33.0,5.0,-100.00,North,-999,-999.0,-999.0,30,-99.99,,,-99.99,,2013-01-07 21:43:00,
2013-01-07 14:53:00,33.0,5.0,-100.00,North,-999,-999.0,-999.0,30,-99.99,,,-99.99,,2013-01-07 21:53:00,
2013-01-07 15:00:00,32.0,8.0,-100.00,North,-999,-999.0,-999.0,35,-99.99,,,-99.99,,2013-01-07 22:00:00,
2013-01-07 15:33:00,32.0,8.0,-100.00,North,-999,-999.0,-999.0,35,-99.99,,,-99.99,,2013-01-07 22:33:00,
2013-01-07 15:43:00,32.0,8.0,-100.00,North,-999,-999.0,-999.0,35,-99.99,,,-99.99,,2013-01-07 22:43:00,
2013-01-07 15:53:00,32.0,8.0,-100.00,North,-999,-999.0,-999.0,35,-99.99,,,-99.99,,2013-01-07 22:53:00,
2013-01-07 16:00:00,27.0,10.0,-100.00,North,-999,-999.0,-999.0,47,-99.99,,,-99.99,,2013-01-07 23:00:00,
2013-01-07 16:33:00,27.0,10.0,-100.00,North,-999,-999.0,-999.0,47,-99.99,,,-99.99,,2013-01-07 23:33:00,
2013-01-07 16:43:00,27.0,10.0,-100.00,North,-999,-999.0,-999.0,47,-99.99,,,-99.99,,2013-01-07 23:43:00,
2013-01-07 16:53:00,27.0,10.0,-100.00,North,-999,-999.0,-999.0,47,-99.99,,,-99.99,,2013-01-07 23:53:00,
2013-01-07 18:00:00,21.0,9.0,-100.00,North,-999,-999.0,-999.0,58,-99.99,,,-99.99,,2013-01-08 01:00:00,
2013-01-07 18:33:00,21.0,9.0,-100.00,North,-999,-999.0,-999.0,58,-99.99,,,-99.99,,2013-01-08 01:33:00,
2013-01-07 18:42:00,21.0,9.0,-100.00,North,-999,-999.0,-999.0,58,-99.99,,,-99.99,,2013-01-08 01:42:00,
2013-01-07 18:52:00,21.0,9.0,-100.00,North,-999,-999.0,-999.0,58,-99.99,,,-99.99,,2013-01-08 01:52:00,
2013-01-07 19:00:00,21.0,9.0,-100.00,North,-999,-999.0,-999.0,58,-99.99,,,-99.99,,2013-01-08 02:00:00,
2013-01-07 19:33:00,21.0,9.0,-100.00,North,-999,-999.0,-999.0,58,-99.99,,,-99.99,,2013-01-08 02:33:00,
2013-01-07 19:43:00,21.0,9.0,-100.00,North,-999,-999.0,-999.0,58,-99.99,,,-99.99,,2013-01-08 02:43:00,
2013-01-07 19:53:00,21.0,9.0,-100.00,North,-999,-999.0,-999.0,58,-99.99,,,-99.99,,2013-01-08 02:53:00,
2013-01-07 20:00:00,20.0,14.0,-100.00,North,-999,-999.0,-999.0,75,-99.99,,,-99.99,,2013-01-08 03:00:00,
2013-01-07 20:33:00,20.0,14.0,-100.00,North,-999,-999.0,-999.0,75,-99.99,,,-99.99,,2013-01-08 03:33:00,
2013-01-07 20:43:00,20.0,14.0,-100.00,North,-999,-999.0,-999.0,75,-99.99,,,-99.99,,2013-01-08 03:43:00,
2013-01-07 20:53:00,20.0,14.0,-100.00,North,-999,-999.0,-999.0,75,-99.99,,,-99.99,,2013-01-08 03:53:00,
2013-01-07 21:00:00,21.0,16.0,-100.00,North,-999,-999.0,-999.0,81,-99.99,,,-99.99,,2013-01-08 04:00:00,
2013-01-07 21:32:00,21.0,16.0,-100.00,North,-999,-999.0,-999.0,81,-99.99,,,-99.99,,2013-01-08 04:32:00,
2013-01-07 21:43:00,21.0,16.0,-100.00,North,-999,-999.0,-999.0,81,-99.99,,,-99.99,,2013-01-08 04:43:00,
2013-01-07 21:52:00,21.0,16.0,-100.00,North,-999,-999.0,-999.0,81,-99.99,,,-99.99,,2013-01-08 04:52:00,
2013-01-07 22:00:00,21.0,20.0,-100.00,North,-999,-999.0,-999.0,93,-99.99,,,-99.99,,2013-01-08 05:00:00,
2013-01-07 22:33:00,21.0,20.0,-100.00,North,-999,-999.0,-999.0,93,-99.99,,,-99.99,,2013-01-08 05:33:00,
2013-01-07 22:43:00,21.0,20.0,-100.00,North,-999,-999.0,-999.0,93,-99.99,,,-99.99,,2013-01-08 05:43:00,
2013-01-07 22:53:00,21.0,20.0,-100.00,North,-999,-999.0,-999.0,93,-99.99,,,-99.99,,2013-01-08 05:53:00,
2013-01-07 23:00:00,20.0,20.0,-100.00,North,-999,-999.0,-999.0,97,-99.99,,,-99.99,,2013-01-08 06:00:00,
2013-01-07 23:33:00,20.0,20.0,-100.00,North,-999,-999.0,-999.0,97,-99.99,,,-99.99,,2013-01-08 06:33:00,
2013-01-07 23:42:00,20.0,20.0,-100.00,North,-999,-999.0,-999.0,97,-99.99,,,-99.99,,2013-01-08 06:42:00,
2013-01-07 23:52:00,20.0,20.0,-100.00,North,-999,-999.0,-999.0,97,-99.99,,,-99.99,,2013-01-08 06:52:00,